This is the latest recevied weather packets stored in our database for station/object W6UA-13. If no packets are shown the sender has not sent any weather packets the latest 10 day(s).
| Time | Temp. | Humidity | Pressure | Rain* | Wind** | Luminosity | Snow |
|---|---|---|---|---|---|---|---|
| 1777032302 | 9.44° C | 81% | 1012 hPa | 0 mm | - | 0 W/m² | - |
| 1777031402 | 9.44° C | 82% | 1012 hPa | 0 mm | - | 0 W/m² | - |
| 1777030503 | 8.89° C | 82% | 1011.8 hPa | 0 mm | - | 0 W/m² | - |
| 1777029603 | 9.44° C | 82% | 1012.1 hPa | 0 mm | - | 0 W/m² | - |
| 1777028703 | 9.44° C | 82% | 1012.2 hPa | 0 mm | - | 0 W/m² | - |
| 1777027803 | 10° C | 81% | 1012.2 hPa | 0 mm | - | 0 W/m² | - |
| 1777026903 | 10° C | 80% | 1012.6 hPa | 0 mm | - | 0 W/m² | - |
| 1777026003 | 10° C | 80% | 1012.7 hPa | 0 mm | - | 0 W/m² | - |
| 1777025103 | 10.56° C | 82% | 1012.4 hPa | 0 mm | - | 0 W/m² | - |
| 1777024202 | 10° C | 84% | 1012.2 hPa | 0 mm | - | 0 W/m² | - |
| 1777023303 | 10.56° C | 85% | 1012.3 hPa | 0 mm | - | 0 W/m² | - |
| 1777022402 | 10° C | 85% | 1012.7 hPa | 0 mm | - | 0 W/m² | - |
| 1777021503 | 10.56° C | 85% | 1012.9 hPa | 0 mm | - | 0 W/m² | - |
| 1777020603 | 10.56° C | 85% | 1013.3 hPa | 0 mm | - | 0 W/m² | - |
| 1777019703 | 11.11° C | 84% | 1013.6 hPa | 0 mm | - | 0 W/m² | - |
| 1777018803 | 11.67° C | 84% | 1013.8 hPa | 0 mm | - | 0 W/m² | - |
| 1777017903 | 11.67° C | 83% | 1013.8 hPa | 0 mm | - | 0 W/m² | - |
| 1777017003 | 11.67° C | 83% | 1013.8 hPa | 0 mm | - | 0 W/m² | - |
| 1777016103 | 11.67° C | 83% | 1013.7 hPa | 0 mm | - | 0 W/m² | - |
| 1777015203 | 12.22° C | 83% | 1013.8 hPa | 0 mm | - | 0 W/m² | - |
| 1777014303 | 12.22° C | 82% | 1014 hPa | 0 mm | - | 0 W/m² | - |
| 1777013403 | 12.22° C | 82% | 1014.2 hPa | 0 mm | - | 0 W/m² | - |
| 1777013033 | 12.78° C | 81% | 1014 hPa | 0 mm | - | 0 W/m² | - |
| 1777012503 | 12.78° C | 81% | 1014 hPa | 0 mm | - | 0 W/m² | - |
| 1777011603 | 12.78° C | 80% | 1014.2 hPa | 0 mm | - | 0 W/m² | - |
* Rain latest hour (hover to see other rain measurements)
** Current wind speed in m/s (hover to see current wind gust speed)